Location: Newark
(54.4333°N, 18.5500°E)
Time: 20:56:12
(UTC+00:00)

ISS - Visible Passes

Search period start: 09 December 2019 00:00
Search period end: 19 December 2019 00:00
Orbit: 411 x 421 km, 51.6° (Epoch: 10 December)

Date Brightness Start Highest point End Pass type
(mag) Time Alt. Az. Time Alt. Az. Time Alt. Az.
09 Dec -2.2 15:02:14 10° W 15:05:22 37° SSW 15:08:31 10° SE visible
09 Dec -0.8 16:39:42 10° WSW 16:41:29 14° SW 16:43:15 10° S visible
10 Dec -0.9 15:50:47 10° WSW 15:53:13 19° SSW 15:55:39 10° SSE visible
11 Dec -1.2 15:02:07 10° W 15:04:55 24° SSW 15:07:42 10° SSE visible
13 Dec -0.5 15:02:24 10° WSW 15:04:17 14° SW 15:06:10 10° S visible
